Location: Rio Negrinho
(26.2394°S, 49.4999°W)
Time: 13:29:31
(UTC+00:00)

Envisat - Pass Details

Date: 26 July 2021
Orbit: 764 x 766 km, 98.2° (Epoch: 28 September)

Event Time Altitude Azimuth Distance (km) Brightness Sun altitude
Rises 08:46:12 0° 344° (NNW) 3,215 6.2 -16.7°
Reaches altitude 10° 08:48:52 10° 331° (NNW) 2,297 5.3 -16.1°
Maximum altitude 08:52:57 24° 277° (W) 1,535 4.0 -15.2°
Enters shadow 08:53:59 23° 258° (WSW) 1,598 4.0 -15.0°
